Weather History for KLLQ - June, 2013

Change the Weather History Date:

Tuesday, June 18, 2013

  Actual Average Record
Temperature  
Mean Temperature 78 °F -  
Max Temperature 84 °F 89 °F 102 °F (2011)
Min Temperature 71 °F 67 °F 52 °F (1960)
Cooling Degree Days 12    
Growing Degree Days 28 (Base 50)    
Moisture  
Dew Point 71 °F    
Average Humidity 81    
Maximum Humidity 93    
Minimum Humidity 62    
Precipitation  
Precipitation 0.00 in - - ()
Sea Level Pressure  
Sea Level Pressure 29.95 in    
Wind  
Wind Speed 3 mph (North)    
Max Wind Speed 10 mph    
Max Gust Speed 16 mph    
Visibility 10 miles    
Events Rain    
Averages and records for this station are not official NWS values.
T = Trace of Precipitation, MM = Missing Value Source: NWS Daily Summary

Daily Weather History Graph

Daily Weather History Graph

Search for Another Location

Airport or City:

Trip Planner

Search our weather history database for the weather conditions in past years. The results will help you decide how hot, cold, wet, or windy it might be!

Date:

Astronomy

Jun. 18, 2013 Rise Set
Actual Time 5:56 AM CDT 8:19 PM CDT
Civil Twilight 5:27 AM CDT 8:48 PM CDT
Nautical Twilight 4:51 AM CDT 9:24 PM CDT
Astronomical Twilight 4:12 AM CDT 10:03 PM CDT
Moon 3:15 PM CDT (6/18) 1:52 AM CDT (6/18)
Length of Visible Light 15h 21m
Length of Day
14h 23m
Waxing Gibbous, 71% of the Moon is Illuminated
Jun 18
Waxing Gibbous
Jun 23
Full
Jun 29
Last Quarter
Jul 8
New
Jul 15
First Quarter

Hourly Weather History & Observations

Time (CDT) Temp. Heat Index Dew Point Humidity Pressure Visibility Wind Dir Wind Speed Gust Speed Precip Events Conditions
12:53 AM 73.9 °F - 72.0 °F 93% 29.88 in 9.0 mi Calm Calm - 0.00 in   Clear
1:53 AM 73.9 °F - 71.1 °F 91% 29.89 in 10.0 mi WNW 3.5 mph - N/A   Clear
2:53 AM 73.9 °F - 71.1 °F 91% 29.88 in 10.0 mi WNW 3.5 mph - N/A   Clear
3:53 AM 73.0 °F - 70.0 °F 90% 29.87 in 10.0 mi Calm Calm - N/A   Mostly Cloudy
4:53 AM 72.0 °F - 70.0 °F 93% 29.88 in 10.0 mi West 3.5 mph - N/A   Clear
5:53 AM 72.0 °F - 70.0 °F 93% 29.88 in 10.0 mi Calm Calm - N/A   Clear
6:53 AM 73.0 °F - 70.0 °F 90% 29.92 in 10.0 mi NNW 3.5 mph - N/A   Clear
7:53 AM 75.0 °F - 71.1 °F 87% 29.95 in 10.0 mi NNW 4.6 mph - N/A   Clear
8:05 AM 75.2 °F - 71.6 °F 89% 29.97 in 10.0 mi NW 5.8 mph - N/A   Partly Cloudy
8:23 AM 75.2 °F - 71.6 °F 89% 29.97 in 10.0 mi North 3.5 mph - N/A   Mostly Cloudy
8:41 AM 75.2 °F - 71.6 °F 89% 29.97 in 10.0 mi Variable 3.5 mph - N/A   Overcast
8:53 AM 75.9 °F - 71.1 °F 85% 29.96 in 10.0 mi NE 4.6 mph - N/A   Overcast
9:53 AM 77.0 °F - 70.0 °F 79% 29.96 in 10.0 mi NE 4.6 mph - N/A   Mostly Cloudy
10:17 AM 78.8 °F - 71.6 °F 78% 29.98 in 10.0 mi Variable 3.5 mph - N/A   Overcast
10:34 AM 78.8 °F - 69.8 °F 74% 29.97 in 10.0 mi North 4.6 mph - N/A   Overcast
10:53 AM 79.0 °F - 70.0 °F 74% 29.97 in 10.0 mi ENE 4.6 mph - N/A   Overcast
11:00 AM 80.6 °F 83.9 °F 69.8 °F 70% 29.98 in 10.0 mi Variable 3.5 mph - N/A   Overcast
11:40 AM 80.6 °F 84.6 °F 71.6 °F 74% 29.99 in 10.0 mi Calm Calm - N/A   Overcast
11:53 AM 80.1 °F 83.6 °F 71.1 °F 74% 29.99 in 10.0 mi Calm Calm - N/A   Overcast
12:19 PM 80.6 °F 84.6 °F 71.6 °F 74% 29.99 in 10.0 mi NE 10.4 mph 16.1 mph N/A   Overcast
12:53 PM 75.0 °F - 71.1 °F 87% 29.98 in 9.0 mi Calm Calm - 0.00 in Rain Light Rain
1:09 PM 77.0 °F - 71.6 °F 83% 29.98 in 10.0 mi Calm Calm - 0.00 in   Overcast
1:53 PM 82.9 °F 88.0 °F 72.0 °F 69% 29.95 in 10.0 mi Variable 6.9 mph - 0.00 in   Mostly Cloudy
2:53 PM 82.9 °F 87.0 °F 70.0 °F 65% 29.94 in 10.0 mi Variable 5.8 mph - N/A   Scattered Clouds
3:09 PM 84.2 °F 88.4 °F 69.8 °F 62% 29.95 in 10.0 mi NE 9.2 mph 16.1 mph N/A   Mostly Cloudy
3:27 PM 82.4 °F 86.3 °F 69.8 °F 66% 29.95 in 10.0 mi NNE 6.9 mph - N/A   Mostly Cloudy
3:53 PM 82.0 °F 85.5 °F 69.1 °F 65% 29.95 in 10.0 mi Variable 3.5 mph - N/A   Clear
4:53 PM 80.1 °F 83.2 °F 70.0 °F 71% 29.93 in 10.0 mi Variable 3.5 mph - N/A   Clear
5:53 PM 78.1 °F - 70.0 °F 76% 29.92 in 10.0 mi Calm Calm - N/A   Clear
6:53 PM 77.0 °F - 71.1 °F 82% 29.93 in 10.0 mi Calm Calm - N/A   Clear
7:53 PM 77.0 °F - 71.1 °F 82% 29.94 in 10.0 mi Calm Calm - N/A   Clear
8:53 PM 75.0 °F - 71.1 °F 87% 29.94 in 10.0 mi ENE 3.5 mph - N/A   Clear
9:53 PM 75.0 °F - 69.1 °F 82% 29.96 in 10.0 mi Calm Calm - N/A   Clear
10:53 PM 71.1 °F - 69.1 °F 93% 29.96 in 10.0 mi Calm Calm - 0.00 in   Clear
11:53 PM 71.1 °F - 68.0 °F 90% 29.97 in 9.0 mi Calm Calm - N/A   Clear